Staples, MN

3:21 PM CDT on May 28, 2017 (GMT -0500)
Staples Municipal

Weather History for KSAZ - May, 2014

Change the Weather History Date:

Saturday, May 10, 2014

  Actual Average Record
Temperature  
Mean Temperature 47 °F -  
Max Temperature 64 °F 61 °F 80 °F (2007)
Min Temperature 30 °F 39 °F 26 °F (2013)
Degree Days  
Heating Degree Days 18    
Moisture  
Dew Point 35 °F    
Average Humidity 59    
Maximum Humidity 100    
Minimum Humidity 26    
Precipitation  
Precipitation 0.01 in - - ()
Sea Level Pressure  
Sea Level Pressure 29.79 in    
Wind  
Wind Speed 4 mph (SSE)    
Max Wind Speed 15 mph    
Max Gust Speed 21 mph    
Visibility 10 miles    
Events Rain    
Averages and records for this station are not official NWS values.
T = Trace of Precipitation, MM = Missing Value Source: NWS Daily Summary

Daily Weather History Graph

Daily Weather History Graph

Search for Another Location

Airport or City:

Trip Planner

Search our weather history database for the weather conditions in past years. The results will help you decide how hot, cold, wet, or windy it might be!

Date:

Astronomy

May. 10, 2014 Rise Set
Actual Time 5:52 AM CDT 8:39 PM CDT
Civil Twilight 5:17 AM CDT 9:14 PM CDT
Nautical Twilight 4:33 AM CDT 9:59 PM CDT
Astronomical Twilight 3:41 AM CDT 10:51 PM CDT
Moon 4:22 PM CDT (5/10) 3:41 AM CDT (5/10)
Length of Visible Light 15h 57m
Length of Day
14h 47m
Waxing Gibbous, 82% of the Moon is Illuminated
May 10
Waxing Gibbous
May 14
Full
May 21
Last Quarter
May 28
New
Jun 5
First Quarter

Hourly Weather History & Observations

Time (CDT) Temp. Windchill Dew Point Humidity Pressure Visibility Wind Dir Wind Speed Gust Speed Precip Events Conditions
12:13 AM 42.8 °F 41.1 °F 33.8 °F 70% 29.78 in 10.0 mi WSW 3.5 mph - N/A   Clear
12:33 AM 39.2 °F 35.9 °F 33.8 °F 81% 29.78 in 10.0 mi WSW 4.6 mph - N/A   Clear
12:54 AM 39.2 °F - 33.8 °F 81% 29.79 in 10.0 mi Calm Calm - N/A   Clear
1:13 AM 39.2 °F 37.0 °F 33.8 °F 81% 29.79 in 10.0 mi WSW 3.5 mph - N/A   Clear
1:33 AM 39.2 °F - 32.0 °F 75% 29.79 in 10.0 mi Calm Calm - N/A   Clear
1:54 AM 39.2 °F - 32.0 °F 75% 29.79 in 10.0 mi Calm Calm - N/A   Clear
2:13 AM 37.4 °F 34.9 °F 30.2 °F 75% 29.79 in 10.0 mi WSW 3.5 mph - N/A   Clear
2:33 AM 39.2 °F - 32.0 °F 75% 29.79 in 10.0 mi Calm Calm - N/A   Clear
2:54 AM 39.2 °F - 32.0 °F 75% 29.79 in 10.0 mi Calm Calm - N/A   Clear
3:13 AM 35.6 °F - 32.0 °F 87% 29.79 in 10.0 mi Calm Calm - N/A   Clear
3:33 AM 35.6 °F - 30.2 °F 81% 29.80 in 10.0 mi Calm Calm - N/A   Clear
3:54 AM 33.8 °F - 30.2 °F 87% 29.80 in 10.0 mi Calm Calm - N/A   Clear
4:13 AM 33.8 °F - 32.0 °F 93% 29.81 in 10.0 mi Calm Calm - N/A   Clear
4:33 AM 32.0 °F - 30.2 °F 93% 29.81 in 10.0 mi Calm Calm - N/A   Clear
4:53 AM 33.8 °F - 30.2 °F 87% 29.81 in 10.0 mi Calm Calm - N/A   Clear
5:13 AM 30.2 °F - 30.2 °F 100% 29.82 in 10.0 mi Calm Calm - N/A   Clear
5:33 AM 30.2 °F - 30.2 °F 100% 29.82 in 10.0 mi Calm Calm - N/A   Clear
5:53 AM 30.2 °F - 30.2 °F 100% 29.83 in 10.0 mi Calm Calm - N/A   Clear
6:14 AM 32.0 °F 28.7 °F 32.0 °F 100% 29.83 in 10.0 mi South 3.5 mph - N/A   Clear
6:33 AM 33.8 °F 30.8 °F 32.0 °F 93% 29.83 in 10.0 mi South 3.5 mph - N/A   Clear
6:53 AM 35.6 °F - 33.8 °F 93% 29.84 in 10.0 mi Calm Calm - N/A   Clear
7:14 AM 37.4 °F - 33.8 °F 87% 29.84 in 10.0 mi Calm Calm - N/A   Clear
7:33 AM 39.2 °F - 35.6 °F 87% 29.84 in 10.0 mi Calm Calm - N/A   Clear
7:53 AM 42.8 °F - 35.6 °F 76% 29.84 in 10.0 mi Calm Calm - N/A   Clear
8:14 AM 44.6 °F - 35.6 °F 71% 29.84 in 10.0 mi Calm Calm - N/A   Clear
8:33 AM 48.2 °F - 35.6 °F 62% 29.83 in 10.0 mi Calm Calm - N/A   Clear
8:53 AM 50.0 °F - 35.6 °F 58% 29.84 in 10.0 mi South 4.6 mph - N/A   Clear
9:14 AM 51.8 °F - 35.6 °F 54% 29.84 in 10.0 mi South 5.8 mph - N/A   Clear
9:33 AM 53.6 °F - 33.8 °F 47% 29.85 in 10.0 mi South 8.1 mph - N/A   Clear
9:53 AM 55.4 °F - 33.8 °F 44% 29.84 in 10.0 mi SSE 4.6 mph - N/A   Clear
10:14 AM 57.2 °F - 30.2 °F 36% 29.84 in 10.0 mi SSE 5.8 mph - N/A   Clear
10:33 AM 57.2 °F - 30.2 °F 36% 29.83 in 10.0 mi SE 6.9 mph - N/A   Clear
10:53 AM 59.0 °F - 26.6 °F 29% 29.83 in 10.0 mi SE 10.4 mph 16.1 mph N/A   Clear
11:13 AM 59.0 °F - 26.6 °F 29% 29.83 in 10.0 mi SE 10.4 mph - N/A   Clear
11:33 AM 60.8 °F - 28.4 °F 29% 29.82 in 10.0 mi SE 8.1 mph - N/A   Clear
11:53 AM 62.6 °F - 28.4 °F 27% 29.81 in 10.0 mi SE 6.9 mph 10.4 mph N/A   Clear
12:13 PM 62.6 °F - 28.4 °F 27% 29.81 in 10.0 mi SSE 11.5 mph 17.3 mph N/A   Clear
12:33 PM 62.6 °F - 26.6 °F 26% 29.80 in 10.0 mi SSE 12.7 mph 16.1 mph N/A   Clear
12:53 PM 62.6 °F - 26.6 °F 26% 29.79 in 10.0 mi SE 9.2 mph 18.4 mph N/A   Clear
1:13 PM 62.6 °F - 26.6 °F 26% 29.79 in 10.0 mi SE 10.4 mph 17.3 mph N/A   Clear
1:33 PM 64.4 °F - 28.4 °F 26% 29.78 in 10.0 mi SSE 10.4 mph 17.3 mph N/A   Clear
1:53 PM 64.4 °F - 28.4 °F 26% 29.78 in 10.0 mi SE 8.1 mph 16.1 mph N/A   Scattered Clouds
2:13 PM 64.4 °F - 28.4 °F 26% 29.78 in 10.0 mi SE 9.2 mph - N/A   Scattered Clouds
2:33 PM 64.4 °F - 30.2 °F 28% 29.77 in 10.0 mi SSE 12.7 mph 17.3 mph N/A   Scattered Clouds
2:53 PM 64.4 °F - 30.2 °F 28% 29.78 in 10.0 mi SSE 13.8 mph 19.6 mph N/A   Scattered Clouds
3:13 PM 62.6 °F - 32.0 °F 32% 29.77 in 10.0 mi SE 11.5 mph - N/A   Overcast
3:34 PM 62.6 °F - 33.8 °F 34% 29.77 in 10.0 mi SE 8.1 mph - N/A   Overcast
3:53 PM 60.8 °F - 35.6 °F 39% 29.77 in 10.0 mi ESE 8.1 mph - N/A   Overcast
4:13 PM 60.8 °F - 39.2 °F 45% 29.77 in 10.0 mi SE 5.8 mph - N/A Rain Light Rain
4:34 PM 62.6 °F - 35.6 °F 37% 29.76 in 10.0 mi ESE 10.4 mph - N/A   Overcast
4:53 PM 64.4 °F - 37.4 °F 37% 29.76 in 10.0 mi SE 11.5 mph 18.4 mph N/A   Overcast
5:13 PM 64.4 °F - 37.4 °F 37% 29.76 in 10.0 mi SE 9.2 mph - N/A   Scattered Clouds
5:34 PM 62.6 °F - 39.2 °F 42% 29.75 in 10.0 mi SE 10.4 mph 16.1 mph N/A   Scattered Clouds
5:53 PM 64.4 °F - 39.2 °F 40% 29.75 in 10.0 mi SE 9.2 mph 17.3 mph N/A   Clear
6:13 PM 64.4 °F - 39.2 °F 40% 29.73 in 10.0 mi ESE 13.8 mph 19.6 mph N/A   Clear
6:33 PM 62.6 °F - 39.2 °F 42% 29.72 in 10.0 mi East 10.4 mph - N/A   Clear
6:53 PM 62.6 °F - 41.0 °F 45% 29.73 in 10.0 mi East 8.1 mph - N/A   Clear
7:14 PM 60.8 °F - 41.0 °F 48% 29.75 in 10.0 mi ESE 8.1 mph - N/A   Scattered Clouds
7:33 PM 60.8 °F - 41.0 °F 48% 29.76 in 10.0 mi ESE 6.9 mph - N/A   Scattered Clouds
7:53 PM 60.8 °F - 41.0 °F 48% 29.78 in 10.0 mi SE 5.8 mph - N/A   Mostly Cloudy
8:14 PM 60.8 °F - 46.4 °F 59% 29.78 in 10.0 mi South 12.7 mph 16.1 mph N/A   Overcast
8:33 PM 60.8 °F - 46.4 °F 59% 29.78 in 10.0 mi SSE 6.9 mph - N/A   Overcast
8:53 PM 57.2 °F - 48.2 °F 72% 29.79 in 10.0 mi South 13.8 mph - N/A   Mostly Cloudy
9:14 PM 57.2 °F - 46.4 °F 67% 29.79 in 10.0 mi South 15.0 mph - N/A   Mostly Cloudy
9:33 PM 55.4 °F - 48.2 °F 77% 29.78 in 10.0 mi SE 10.4 mph - N/A Rain Light Rain
9:53 PM 57.2 °F - 41.0 °F 55% 29.73 in 7.0 mi East 9.2 mph 20.7 mph 0.01 in Rain Light Rain
10:14 PM 55.4 °F - 44.6 °F 67% 29.76 in 10.0 mi SW 4.6 mph - N/A   Scattered Clouds
10:33 PM 53.6 °F - 46.4 °F 77% 29.78 in 10.0 mi SSE 9.2 mph - N/A   Mostly Cloudy
10:54 PM 53.6 °F - 48.2 °F 82% 29.79 in 10.0 mi SE 9.2 mph 16.1 mph N/A   Scattered Clouds
11:13 PM 53.6 °F - 46.4 °F 77% 29.80 in 10.0 mi SE 5.8 mph - N/A   Clear
11:33 PM 53.6 °F - 46.4 °F 77% 29.81 in 10.0 mi SSE 5.8 mph - N/A   Mostly Cloudy
11:54 PM 53.6 °F - 46.4 °F 77% 29.81 in 10.0 mi SSE 5.8 mph - N/A   Mostly Cloudy